DW8750 Weather Reports


Display with metric or nautical units.
time (UTC)temp
F
wind
direction
speed
MPH
gust
MPH
rain 1hr
in
rain 24hr
in
rain mn
in
humidity
%
barometer
mb
20260503013014 56 221 5.0 8.0 0.00 0.00 0.00 66 1021.9
20260503011014 57 235 5.0 10.0 0.00 0.00 0.00 65 1022.0
20260503010013 57 214 6.0 10.0 0.00 0.00 0.00 64 1022.0
20260503005011 57 223 7.0 11.0 0.00 0.00 0.00 64 1022.0
20260503004014 57 206 7.0 11.0 0.00 0.00 0.00 64 1022.1
20260503003013 57 199 6.0 10.0 0.00 0.00 0.00 64 1022.2
20260503002013 57 209 6.0 10.0 0.00 0.00 0.00 64 1022.3
20260503000011 57 202 6.0 10.0 0.00 0.00 0.00 62 1022.6
20260502235012 57 235 7.0 9.0 0.00 0.00 0.00 62 1022.6
20260502233012 57 198 7.0 10.0 0.00 0.00 0.00 63 1022.9
20260502232011 57 204 6.0 9.0 0.00 0.00 0.00 63 1023.0
20260502231011 56 219 6.0 11.0 0.00 0.00 0.00 63 1023.2
20260502230012 57 211 5.0 8.0 0.00 0.00 0.00 63 1023.3
20260502225009 57 229 7.0 12.0 0.00 0.00 0.00 63 1023.4
20260502224009 56 227 6.0 12.0 0.00 0.00 0.00 64 1023.4
20260502223007 56 204 5.0 7.0 0.00 0.00 0.00 65 1023.4
20260502222008 56 236 5.0 8.0 0.00 0.00 0.00 65 1023.4
20260502220029 56 230 5.0 8.0 0.00 0.00 0.00 64 1023.4
20260502215006 57 195 4.0 9.0 0.00 0.00 0.00 63 1023.3
20260502214006 57 211 4.0 8.0 0.00 0.00 0.00 63 1023.4
20260502211006 57 244 4.0 8.0 0.00 0.00 0.00 63 1023.4
20260502210008 57 186 5.0 9.0 0.00 0.00 0.00 62 1023.3
20260502205006 57 228 4.0 8.0 0.00 0.00 0.00 63 1023.3
20260502204006 57 210 6.0 9.0 0.00 0.00 0.00 62 1023.3
20260502203005 57 237 5.0 9.0 0.00 0.00 0.00 64 1023.4
20260502202006 57 175 6.0 10.0 0.00 0.00 0.00 64 1023.4
20260502201005 57 217 5.0 8.0 0.00 0.00 0.00 63 1023.4
20260502200007 57 205 5.0 8.0 0.00 0.00 0.00 63 1023.4
20260502194005 58 208 5.0 8.0 0.00 0.00 0.00 63 1023.3
20260502193006 58 223 5.0 7.0 0.00 0.00 0.00 63 1023.1
20260502192008 58 184 5.0 8.0 0.00 0.00 0.00 62 1023.1
20260502191005 59 211 3.0 7.0 0.00 0.00 0.00 61 1022.9
20260502190006 60 201 3.0 6.0 0.00 0.00 0.00 60 1022.8
20260502185010 61 199 2.0 6.0 0.00 0.00 0.00 58 1022.7
20260502184002 61 310 4.0 7.0 0.00 0.00 0.00 56 1022.6
20260502183004 61 302 3.0 7.0 0.00 0.00 0.00 56 1022.4
20260502182002 61 282 4.0 7.0 0.00 0.00 0.00 54 1022.2
20260502181002 61 300 4.0 8.0 0.00 0.00 0.00 53 1022.2
20260502163956 64 338 6.0 11.0 0.00 0.00 0.00 51 1021.4
20260502162959 64 312 9.0 13.0 0.00 0.00 0.00 48 1021.5
20260502161956 64 348 7.0 14.0 0.00 0.00 0.00 51 1021.4
20260502160956 64 303 8.0 13.0 0.00 0.00 0.00 51 1021.4
20260502151954 64 341 9.0 14.0 0.00 0.00 0.00 44 1021.3
20260502122949 63 341 10.0 17.0 0.00 0.00 0.00 47 1022.1
20260502121949 64 9 8.0 14.0 0.00 0.00 0.00 49 1022.2
20260502120951 63 23 9.0 16.0 0.00 0.00 0.00 49 1022.2
20260502114949 64 53 9.0 16.0 0.00 0.00 0.00 46 1022.1
20260502113948 64 30 10.0 16.0 0.00 0.00 0.00 48 1022.2
20260502112945 64 12 10.0 18.0 0.00 0.00 0.00 50 1022.2
20260502111946 64 349 9.0 16.0 0.00 0.00 0.00 47 1022.0
20260502110946 63 21 11.0 16.0 0.00 0.00 0.00 45 1022.1
20260502105946 64 5 10.0 17.0 0.00 0.00 0.00 45 1022.2
20260502104945 64 24 10.0 19.0 0.00 0.00 0.00 43 1022.2
20260502103945 64 27 9.0 17.0 0.00 0.00 0.00 44 1022.3
20260502100945 62 22 10.0 16.0 0.00 0.00 0.00 45 1022.4
20260502090945 63 86 9.0 15.0 0.00 0.00 0.00 53 1022.2
20260502070939 62 39 8.0 15.0 0.00 0.00 0.00 54 1021.6
20260502065940 62 5 9.0 17.0 0.00 0.00 0.00 54 1021.6
20260502064938 61 38 8.0 14.0 0.00 0.00 0.00 55 1021.5
20260502062940 61 57 5.0 14.0 0.00 0.00 0.00 54 1021.4
20260502061939 59 255 2.0 5.0 0.00 0.00 0.00 61 1021.4
20260502060939 58 252 3.0 5.0 0.00 0.00 0.00 62 1021.5
20260502055939 57 219 2.0 4.0 0.00 0.00 0.00 64 1021.4
20260502054938 56 211 2.0 4.0 0.00 0.00 0.00 65 1021.4
20260502053942 56 181 2.0 4.0 0.00 0.00 0.00 66 1021.2
20260502052936 56 208 3.0 6.0 0.00 0.00 0.00 66 1021.2
20260502051937 55 205 3.0 5.0 0.00 0.00 0.00 66 1021.2
20260502050936 54 188 3.0 6.0 0.00 0.00 0.00 67 1021.2
20260502045935 53 194 3.0 5.0 0.00 0.00 0.00 68 1021.2
20260502044934 53 221 2.0 5.0 0.00 0.00 0.00 68 1021.2
20260502043935 53 191 3.0 5.0 0.00 0.00 0.00 67 1021.1
20260502041932 53 210 5.0 7.0 0.00 0.00 0.00 67 1021.1
20260502040932 53 207 3.0 5.0 0.00 0.00 0.00 68 1021.0
20260502035934 53 204 3.0 5.0 0.00 0.00 0.00 68 1021.0
20260502034932 53 183 4.0 5.0 0.00 0.00 0.00 68 1021.0
20260502033932 53 184 3.0 5.0 0.00 0.00 0.00 70 1021.0
20260502032932 53 182 3.0 5.0 0.00 0.00 0.00 70 1021.0
20260502031932 54 187 3.0 5.0 0.00 0.00 0.00 68 1021.0
20260502030934 54 176 3.0 5.0 0.00 0.00 0.00 69 1021.0
20260502025932 54 177 3.0 5.0 0.00 0.00 0.00 71 1021.0
20260502024932 54 177 3.0 5.0 0.00 0.00 0.00 72 1021.0
20260502023932 54 171 3.0 5.0 0.00 0.00 0.00 72 1021.0
20260502022930 54 185 2.0 4.0 0.00 0.00 0.00 74 1021.0
20260502021930 55 191 4.0 5.0 0.00 0.00 0.00 74 1021.1
20260502020934 55 193 3.0 5.0 0.00 0.00 0.00 74 1021.2
20260502015932 55 192 2.0 5.0 0.00 0.00 0.00 74 1021.0
20260502014931 55 197 3.0 4.0 0.00 0.00 0.00 74 1021.1
20260502013932 55 187 3.0 5.0 0.00 0.00 0.00 74 1020.9